GW3588 Weather Reports


time (UTC)temp
C
wind
direction
speed
KPH
gust
KPH
rain 1hr
cm
rain 24hr
cm
rain mn
cm
humidity
%
barometer
mb
20260507234736 12 255 19.3 25.7 0.00 0.00 0.00 48 1004.8
20260507234237 13 254 19.3 25.7 0.00 0.00 0.00 45
20260507233737 13 256 22.5 29.0 0.00 0.00 0.00 43 1004.6
20260507233237 13 257 22.5 30.6 0.00 0.00 0.00 43 1004.5
20260507232736 13 260 22.5 29.0 0.00 0.00 0.00 45 1004.5
20260507232236 13 257 20.9 30.6 0.00 0.00 0.00 43 1004.4
20260507231736 13 256 20.9 29.0 0.00 0.00 0.00 43 1004.4
20260507231237 13 258 22.5 30.6 0.00 0.00 0.00 44 1004.4
20260507230736 13 262 22.5 30.6 0.00 0.00 0.00 43 1004.4
20260507230237 13 261 24.1 37.0 0.00 0.00 0.00 41
20260507225736 13 263 24.1 35.4 0.00 0.00 0.00 43
20260507225237 13 262 22.5 29.0 0.00 0.00 0.00 45 1004.3
20260507224736 13 260 17.7 32.2 0.00 0.00 0.00 45 1004.2
20260507224236 13 256 22.5 29.0 0.00 0.00 0.00 43 1004.2
20260507223736 13 254 20.9 27.4 0.00 0.00 0.00 48 1004.1
20260507223236 13 246 17.7 24.1 0.00 0.00 0.00 48 1004.1
20260507222740 14 261 19.3 27.4 0.00 0.00 0.00 43 1004.0
20260507222236 14 261 17.7 27.4 0.00 0.00 0.00 43 1004.0
20260507221736 13 260 17.7 24.1 0.00 0.00 0.00 46
20260507221237 14 247 19.3 27.4 0.00 0.00 0.00 45
20260507220736 15 256 20.9 25.7 0.00 0.00 0.00 43 1003.9
20260507220236 15 274 16.1 24.1 0.00 0.00 0.00 39 1003.8
20260507215736 15 267 19.3 35.4 0.00 0.00 0.00 39 1003.8
20260507215236 15 266 19.3 27.4 0.00 0.00 0.00 43
20260507214736 15 266 17.7 27.4 0.00 0.00 0.00 41
20260507214236 15 265 20.9 29.0 0.00 0.00 0.00 40 1003.7
20260507213736 15 258 20.9 30.6 0.00 0.00 0.00 43
20260507213236 15 263 20.9 30.6 0.00 0.00 0.00 41 1003.7
20260507212736 15 270 19.3 29.0 0.00 0.00 0.00 42 1003.7
20260507212136 15 260 19.3 29.0 0.00 0.00 0.00 39 1003.7
20260507211636 15 252 24.1 33.8 0.00 0.00 0.00 45
20260507211136 15 256 19.3 27.4 0.00 0.00 0.00 45 1003.6
20260507210636 15 256 19.3 29.0 0.00 0.00 0.00 44 1003.8
20260507210136 15 247 20.9 25.7 0.00 0.00 0.00 43 1003.8
20260507205636 15 228 12.9 19.3 0.00 0.00 0.00 45 1003.8
20260507205136 15 242 14.5 20.9 0.00 0.00 0.00 45 1003.6
20260507204636 16 268 17.7 24.1 0.00 0.00 0.00 38 1003.7
20260507204135 16 271 14.5 27.4 0.00 0.00 0.00 37 1003.7
20260507203636 16 257 20.9 27.4 0.00 0.00 0.00 40 1003.6
20260507203136 16 253 20.9 25.7 0.00 0.00 0.00 38 1003.6
20260507202636 16 253 19.3 25.7 0.00 0.00 0.00 38 1003.6
20260507202136 16 261 19.3 27.4 0.00 0.00 0.00 37 1003.5
20260507201636 16 250 24.1 38.6 0.00 0.00 0.00 37 1003.6
20260507201136 16 256 24.1 32.2 0.00 0.00 0.00 42 1003.5
20260507200636 16 263 20.9 27.4 0.00 0.00 0.00 40
20260507200136 16 267 19.3 33.8 0.00 0.00 0.00 39 1003.7
20260507195636 16 262 24.1 32.2 0.00 0.00 0.00 40
20260507195136 16 262 24.1 33.8 0.00 0.00 0.00 39 1003.8
20260507194636 16 258 22.5 32.2 0.00 0.00 0.00 37 1003.6
20260507194136 16 261 22.5 32.2 0.00 0.00 0.00 37 1003.7
20260507193636 16 256 27.4 40.2 0.00 0.00 0.00 41
20260507193136 16 262 22.5 30.6 0.00 0.00 0.00 38 1003.8
20260507192636 16 267 24.1 35.4 0.00 0.00 0.00 38 1003.8
20260507192136 16 263 22.5 33.8 0.00 0.00 0.00 39
20260507191636 16 266 24.1 38.6 0.00 0.00 0.00 38 1003.9
20260507191135 16 275 19.3 29.0 0.00 0.00 0.00 41 1003.9
20260507190635 16 259 19.3 30.6 0.00 0.00 0.00 41 1004.0
20260507190036 16 250 25.7 33.8 0.00 0.00 0.00 41 1003.8
20260507185536 16 259 20.9 29.0 0.00 0.00 0.00 43 1004.0
20260507185035 16 229 17.7 27.4 0.00 0.00 0.00 45 1004.0
20260507184535 16 253 20.9 25.7 0.00 0.00 0.00 41
20260507184036 16 245 17.7 30.6 0.00 0.00 0.00 42 1004.1
20260507183537 16 231 14.5 24.1 0.00 0.00 0.00 49 1004.2
20260507183035 16 245 16.1 24.1 0.00 0.00 0.00 48 1004.1
20260507182535 16 239 14.5 25.7 0.00 0.00 0.00 49 1004.2
20260507182035 16 247 16.1 24.1 0.00 0.00 0.00 49
20260507181535 15 244 11.3 19.3 0.00 0.00 0.00 53 1004.4
20260507181036 14 131 14.5 19.3 0.00 0.00 0.00 59 1004.5
20260507180535 14 160 11.3 20.9 0.00 0.00 0.00 61 1004.6
20260507180035 14 147 11.3 22.5 0.00 0.00 0.00 62 1004.5
20260507175536 13 127 19.3 27.4 0.00 0.00 0.00 64 1004.4
20260507175035 15 126 19.3 29.0 0.00 0.00 0.00 61 1004.3
20260507174535 15 150 12.9 19.3 0.00 0.00 0.00 59 1004.4
20260507174035 17 155 9.7 17.7 0.00 0.00 0.00 54 1004.4
20260507173535 16 196 9.7 17.7 0.00 0.00 0.00 52
20260507173035 16 213 6.4 27.4 0.00 0.00 0.00 59
20260507172536 16 236 19.3 29.0 0.00 0.00 0.00 55 1004.5
20260507172035 16 224 12.9 22.5 0.00 0.00 0.00 57 1004.5
20260507171538 16 226 16.1 27.4 0.00 0.00 0.00 58 1004.6
20260507171035 15 224 19.3 27.4 0.00 0.00 0.00 61 1004.6
20260507170535 13 184 4.8 16.1 0.00 0.00 0.00 66 1004.8
20260507170035 14 161 12.9 17.7 0.00 0.00 0.00 65
20260507165535 14 163 9.7 17.7 0.00 0.00 0.00 64 1004.8
20260507165035 14 166 9.7 16.1 0.00 0.00 0.00 65 1004.9
20260507164535 14 127 11.3 16.1 0.00 0.00 0.00 64 1005.0
20260507164035 14 144 12.9 17.7 0.00 0.00 0.00 63
20260507163535 14 145 11.3 20.9 0.00 0.00 0.00 65 1005.0
20260507163035 13 137 14.5 19.3 0.00 0.00 0.00 67
20260507162535 13 134 12.9 17.7 0.00 0.00 0.00 66 1005.2
20260507162035 13 130 12.9 17.7 0.00 0.00 0.00 66 1005.1
20260507161536 13 130 12.9 19.3 0.00 0.00 0.00 66 1005.2
20260507161035 14 130 12.9 19.3 0.00 0.00 0.00 65 1005.3
20260507160435 13 121 12.9 19.3 0.00 0.00 0.00 68 1005.3
20260507155936 13 125 14.5 20.9 0.00 0.00 0.00 70 1005.3
20260507155435 12 112 11.3 16.1 0.00 0.00 0.00 69 1005.4
20260507154935 12 110 11.3 16.1 0.00 0.00 0.00 68 1005.5
20260507154435 12 120 11.3 17.7 0.00 0.00 0.00 70 1005.6
20260507153935 12 133 9.7 17.7 0.00 0.00 0.00 70 1005.7
20260507153435 11 136 12.9 19.3 0.00 0.00 0.00 70 1005.7
20260507152935 12 134 12.9 17.7 0.00 0.00 0.00 69
20260507152435 12 131 14.5 20.9 0.00 0.00 0.00 67
20260507151935 13 132 14.5 19.3 0.00 0.00 0.00 64 1005.8
20260507151435 13 147 12.9 19.3 0.00 0.00 0.00 65 1005.9
20260507150935 13 150 14.5 19.3 0.00 0.00 0.00 67 1006.0
20260507150434 13 148 12.9 17.7 0.00 0.00 0.00 67 1006.1
20260507145935 12 156 11.3 20.9 0.00 0.00 0.00 69 1006.0
20260507145435 12 143 12.9 16.1 0.00 0.00 0.00 68 1006.0
20260507144935 12 141 12.9 17.7 0.00 0.00 0.00 66 1006.0
20260507144435 12 159 12.9 17.7 0.00 0.00 0.00 68 1006.0
20260507143835 12 146 12.9 17.7 0.00 0.00 0.00 67 1006.0
20260507143335 13 144 9.7 14.5 0.00 0.00 0.00 69 1005.9
20260507142834 12 165 11.3 16.1 0.00 0.00 0.00 69 1006.0
20260507142335 12 130 8.0 14.5 0.00 0.00 0.00 68 1005.9
20260507141835 13 156 8.0 12.9 0.00 0.00 0.00 69 1005.9
20260507141335 12 127 8.0 12.9 0.00 0.00 0.00 70 1005.9
20260507140835 12 158 11.3 14.5 0.00 0.00 0.00 67 1006.0
20260507140335 13 202 8.0 11.3 0.00 0.00 0.00 68 1005.9
20260507135834 12 229 6.4 11.3 0.00 0.00 0.00 69 1006.0
20260507135335 12 238 9.7 12.9 0.00 0.00 0.00 68 1006.0
20260507134835 12 220 8.0 11.3 0.00 0.00 0.00 70 1006.1
20260507134334 12 235 9.7 14.5 0.00 0.00 0.00 72 1006.1
20260507133835 12 231 11.3 16.1 0.00 0.00 0.00 73 1006.2
20260507133334 11 231 12.9 17.7 0.00 0.00 0.00 74 1006.3
20260507132835 11 240 14.5 19.3 0.00 0.00 0.00 75 1006.3
20260507132334 11 237 16.1 20.9 0.00 0.00 0.00 76 1006.3
20260507131835 11 249 17.7 24.1 0.00 0.00 0.00 76
20260507131335 11 246 16.1 22.5 0.00 0.00 0.00 77 1006.3
20260507130834 11 248 17.7 25.7 0.00 0.00 0.00 78 1006.3
20260507130334 11 252 19.3 24.1 0.00 0.00 0.00 79 1006.4
20260507125834 11 246 17.7 24.1 0.00 0.00 0.00 80 1006.3
20260507125335 11 240 19.3 22.5 0.00 0.00 0.00 80 1006.3
20260507124834 11 242 11.3 17.7 0.00 0.00 0.00 80 1006.4
20260507124335 11 232 11.3 17.7 0.00 0.00 0.00 80 1006.4
20260507123834 11 236 12.9 17.7 0.00 0.00 0.00 81
20260507123334 11 233 8.0 12.9 0.00 0.00 0.00 82 1006.4
20260507122835 10 238 11.3 17.7 0.00 0.00 0.00 83 1006.6
20260507122334 10 246 11.3 16.1 0.00 0.00 0.00 84 1006.5
20260507121834 10 244 11.3 16.1 0.00 0.00 0.00 84 1006.6
20260507121334 10 238 11.3 14.5 0.00 0.00 0.00 85 1006.5
20260507120835 10 241 9.7 12.9 0.00 0.00 0.00 86 1006.5
20260507120334 9 248 9.7 12.9 0.00 0.00 0.00 86 1006.5
20260507115834 9 246 11.3 12.9 0.00 0.00 0.00 87 1006.7
20260507115334 9 250 9.7 12.9 0.00 0.00 0.00 87 1006.5
20260507114834 9 251 9.7 12.9 0.00 0.00 0.00 87
20260507114334 9 270 9.7 12.9 0.00 0.00 0.00 87
20260507113835 9 269 8.0 11.3 0.00 0.00 0.00 88 1006.3
20260507113335 8 283 8.0 11.3 0.00 0.00 0.00 87
20260507112834 8 289 6.4 8.0 0.00 0.00 0.00 88
20260507112334 8 297 8.0 9.7 0.00 0.00 0.00 87
20260507111835 8 289 8.0 8.0 0.00 0.00 0.00 87 1006.5
20260507111334 8 294 6.4 8.0 0.00 0.00 0.00 87 1006.6
20260507110834 8 297 6.4 11.3 0.00 0.00 0.00 87 1006.5
20260507110334 8 305 9.7 14.5 0.00 0.00 0.00 87 1006.4
20260507105834 8 298 11.3 16.1 0.00 0.00 0.00 87 1006.1
20260507105334 8 296 12.9 16.1 0.00 0.00 0.00 87 1006.1
20260507104834 8 289 14.5 17.7 0.00 0.00 0.00 87 1006.1
20260507104334 8 288 12.9 20.9 0.00 0.00 0.00 88 1005.9
20260507103834 8 289 12.9 17.7 0.00 0.00 0.00 88 1005.9
20260507103334 8 277 12.9 17.7 0.00 0.00 0.00 88 1006.3
20260507102834 8 278 14.5 19.3 0.00 0.00 0.00 88 1006.2
20260507102334 8 284 12.9 19.3 0.00 0.00 0.00 88 1006.0
20260507101834 8 280 11.3 16.1 0.00 0.00 0.00 88 1005.9
20260507101334 8 274 11.3 20.9 0.00 0.00 0.00 88 1005.9
20260507100834 8 261 16.1 19.3 0.00 0.00 0.00 88 1006.2
20260507100334 8 258 14.5 20.9 0.00 0.00 0.00 88 1006.1
20260507095834 8 263 12.9 19.3 0.00 0.00 0.00 88 1005.8
20260507095334 8 256 14.5 20.9 0.00 0.00 0.00 88 1006.0
20260507094834 8 252 17.7 20.9 0.00 0.00 0.00 88 1005.9
20260507094334 8 250 14.5 22.5 0.00 0.00 0.00 88 1005.8
20260507093834 8 255 17.7 25.7 0.00 0.00 0.00 88 1005.8
20260507093334 8 250 22.5 27.4 0.00 0.00 0.00 88 1006.0
20260507092834 8 253 20.9 24.1 0.00 0.00 0.00 88 1005.8
20260507092334 8 251 19.3 24.1 0.00 0.00 0.00 88
20260507091834 8 252 20.9 25.7 0.00 0.00 0.00 88 1005.7
20260507091334 8 251 20.9 25.7 0.00 0.00 0.00 88
20260507090834 8 260 16.1 22.5 0.00 0.00 0.00 88 1005.6
20260507090334 8 271 19.3 25.7 0.00 0.00 0.00 87 1005.3
20260507085834 8 273 17.7 27.4 0.00 0.00 0.00 87
20260507085334 9 267 17.7 25.7 0.00 0.00 0.00 87
20260507084833 9 261 17.7 29.0 0.00 0.00 0.00 87
20260507084334 9 272 19.3 27.4 0.00 0.00 0.00 87 1005.2
20260507083833 9 268 22.5 30.6 0.00 0.00 0.00 87
20260507083334 9 270 19.3 29.0 0.00 0.00 0.00 87 1005.2
20260507082834 9 266 19.3 25.7 0.00 0.00 0.00 87 1005.2
20260507082334 9 264 19.3 27.4 0.00 0.00 0.00 87 1005.3
20260507081834 9 260 22.5 32.2 0.00 0.00 0.00 87
20260507081334 9 263 19.3 29.0 0.00 0.00 0.00 87
20260507080834 10 258 24.1 38.6 0.00 0.00 0.00 87 1005.1
20260507080334 10 256 25.7 33.8 0.00 0.00 0.00 87
20260507075834 10 257 22.5 29.0 0.00 0.00 0.00 87
20260507075334 10 262 20.9 30.6 0.00 0.00 0.00 87 1005.0
20260507074833 10 262 19.3 33.8 0.00 0.00 0.00 88 1004.9
20260507074333 10 260 20.9 33.8 0.00 0.00 0.00 88 1004.9
20260507073834 10 260 20.9 32.2 0.00 0.00 0.00 88 1004.7
20260507073333 10 265 24.1 32.2 0.00 0.00 0.00 88 1004.7
20260507072833 10 257 22.5 37.0 0.00 0.00 0.00 88 1004.7
20260507072333 10 254 24.1 32.2 0.00 0.00 0.00 88 1004.9
20260507071833 10 251 20.9 30.6 0.00 0.00 0.00 88 1004.9
20260507071334 10 253 22.5 35.4 0.00 0.00 0.00 89 1004.7
20260507070833 10 251 25.7 33.8 0.00 0.00 0.00 89 1004.5
20260507070333 10 251 27.4 38.6 0.00 0.00 0.00 90 1004.5
20260507065833 10 255 29.0 38.6 0.00 0.00 0.00 90
20260507065333 10 249 25.7 38.6 0.00 0.00 0.00 90 1004.7
20260507064834 10 250 24.1 30.6 0.00 0.00 0.00 90
20260507064333 10 252 22.5 30.6 0.00 0.00 0.00 91
20260507063833 10 239 19.3 29.0 0.00 0.00 0.00 91 1004.3
20260507063333 10 240 20.9 29.0 0.00 0.00 0.00 91 1004.4
20260507062833 10 247 20.9 29.0 0.00 0.00 0.00 91 1004.3
20260507062333 10 251 22.5 30.6 0.00 0.00 0.00 92
20260507061833 10 248 19.3 29.0 0.00 0.00 0.00 92 1004.4
20260507061333 10 242 20.9 27.4 0.00 0.00 0.00 92
20260507060833 10 249 20.9 29.0 0.00 0.00 0.00 92 1004.4
20260507060333 10 254 25.7 33.8 0.00 0.00 0.00 93 1004.4
20260507055833 10 253 25.7 32.2 0.00 0.00 0.00 93 1004.5
20260507055333 10 244 22.5 27.4 0.00 0.00 0.00 93 1004.6
20260507054833 10 231 16.1 27.4 0.00 0.00 0.00 93
20260507054333 10 233 19.3 27.4 0.00 0.00 0.00 93
20260507053833 10 229 19.3 30.6 0.00 0.00 0.00 94
20260507053333 10 219 14.5 24.1 0.00 0.00 0.00 94 1004.8
20260507052833 10 220 11.3 24.1 0.00 0.00 0.00 94 1004.5
20260507052333 10 246 20.9 33.8 0.00 0.00 0.00 94 1004.6
20260507051833 10 246 25.7 40.2 0.00 0.00 0.00 95 1004.7
20260507051341 10 242 29.0 40.2 0.00 0.00 0.00 95
20260507050833 10 236 20.9 30.6 0.00 0.00 0.00 94 1004.7
20260507050333 10 240 19.3 27.4 0.00 0.00 0.00 94 1004.4
20260507045833 11 254 19.3 24.1 0.00 0.00 0.00 95 1004.2
20260507045333 11 244 20.9 25.7 0.00 0.00 0.00 95 1004.3
20260507044833 11 230 14.5 22.5 0.00 0.00 0.00 95 1004.4
20260507044333 11 231 14.5 22.5 0.00 0.00 0.00 95 1004.7
20260507043833 11 239 17.7 27.4 0.00 0.00 0.00 95 1004.7
20260507043333 11 238 20.9 29.0 0.00 0.00 0.00 95 1004.6
20260507042833 11 233 17.7 27.4 0.00 0.00 0.00 95 1004.6
20260507042333 11 226 17.7 25.7 0.00 0.00 0.00 95 1004.5
20260507041833 11 237 17.7 22.5 0.00 0.00 0.00 95
20260507041333 12 231 17.7 24.1 0.00 0.00 0.00 95 1004.5
20260507040833 12 225 14.5 24.1 0.00 0.00 0.00 94 1004.4
20260507040333 12 223 16.1 27.4 0.00 0.00 0.00 95 1004.3
20260507035833 12 214 14.5 22.5 0.00 0.00 0.00 95 1004.1
20260507035333 12 215 12.9 25.7 0.00 0.00 0.00 95
20260507034833 12 212 17.7 29.0 0.00 0.00 0.00 96 1004.2
20260507034333 11 199 17.7 27.4 0.00 0.00 0.00 96
20260507033833 11 173 12.9 20.9 0.00 0.00 0.00 95
20260507033333 11 168 14.5 22.5 0.00 0.00 0.00 95 1003.9
20260507032833 11 163 12.9 20.9 0.00 0.00 0.00 95
20260507032333 11 161 12.9 22.5 0.00 0.00 0.00 95 1003.8
20260507031833 11 160 14.5 24.1 0.00 0.00 0.00 95 1003.7
20260507031333 11 163 14.5 20.9 0.00 0.00 0.00 95 1003.7
20260507030833 11 157 14.5 25.7 0.00 0.00 0.00 94
20260507030333 12 154 16.1 27.4 0.00 0.00 0.00 95 1003.6
20260507025833 12 153 17.7 32.2 0.00 0.00 0.00 95
20260507025333 12 150 20.9 33.8 0.00 0.00 0.00 95 1003.7
20260507024833 12 149 17.7 30.6 0.00 0.00 0.00 95 1003.6
20260507024333 12 146 19.3 29.0 0.00 0.00 0.00 95 1003.7
20260507023833 12 156 17.7 29.0 0.00 0.00 0.00 95 1003.9
20260507023333 11 145 17.7 25.7 0.00 0.00 0.00 95
20260507022833 11 147 19.3 29.0 0.00 0.00 0.00 95 1003.7
20260507022333 12 142 17.7 27.4 0.00 0.00 0.00 95 1003.9
20260507021832 11 150 19.3 29.0 0.00 0.00 0.00 95 1003.7
20260507021332 11 151 20.9 32.2 0.00 0.00 0.00 95
20260507020833 11 154 17.7 30.6 0.00 0.00 0.00 95
20260507020332 11 155 17.7 29.0 0.00 0.00 0.00 95 1004.0
20260507015832 11 154 19.3 33.8 0.00 0.00 0.00 95 1004.0
20260507015332 11 156 19.3 30.6 0.00 0.00 0.00 95 1003.9
20260507014833 11 152 17.7 32.2 0.00 0.00 0.00 94 1004.0
20260507014333 11 155 20.9 32.2 0.00 0.00 0.00 95 1003.9
20260507013833 11 150 20.9 40.2 0.00 0.00 0.00 95 1004.1
20260507013332 11 154 20.9 32.2 0.00 0.00 0.00 94 1004.1
20260507012832 11 151 19.3 32.2 0.00 0.00 0.00 95
20260507012332 11 147 17.7 38.6 0.00 0.00 0.00 94 1004.2
20260507011832 11 151 20.9 41.8 0.00 0.00 0.00 94 1004.2
20260507011332 11 146 20.9 38.6 0.00 0.00 0.00 94 1004.2
20260507010833 11 143 22.5 38.6 0.00 0.00 0.00 94
20260507010333 11 143 24.1 35.4 0.00 0.00 0.00 94 1004.2
20260507005832 11 141 22.5 41.8 0.00 0.00 0.00 94 1004.2
20260507005332 11 142 24.1 43.5 0.00 0.00 0.00 94
20260507004832 11 148 25.7 41.8 0.00 0.00 0.00 94 1004.1
20260507004332 11 150 22.5 46.7 0.00 0.00 0.00 94 1004.2
20260507003832 11 149 25.7 46.7 0.00 0.00 0.00 94 1004.3
20260507003332 11 143 27.4 41.8 0.00 0.00 0.00 94 1004.2
20260507002832 11 143 27.4 41.8 0.00 0.00 0.00 94 1003.9
20260507002332 11 143 24.1 40.2 0.00 0.00 0.00 94 1004.1
20260507001832 11 141 27.4 45.1 0.00 0.00 0.00 94 1004.0
20260507001332 11 136 27.4 41.8 0.00 0.00 0.00 94 1004.0
20260507000832 11 140 25.7 40.2 0.00 0.00 0.00 94 1003.9
20260507000332 11 133 24.1 35.4 0.00 0.00 0.00 94
20260506235832 11 137 20.9 37.0 0.00 0.00 0.00 94 1004.0
20260506235332 11 136 20.9 33.8 0.00 0.00 0.00 94 1004.0